Newark Heath, OH

8:04 AM EST on January 21, 2018 (GMT -0500)
Newark Heath

Weather History for KVTA - November, 2012

Change the Weather History Date:

Sunday, November 4, 2012

  Actual Average Record
Temperature  
Mean Temperature 36 °F -  
Max Temperature 45 °F 55 °F 77 °F (1987)
Min Temperature 28 °F 36 °F 17 °F (1991)
Degree Days  
Heating Degree Days 28    
Moisture  
Dew Point 29 °F    
Average Humidity 69    
Maximum Humidity 92    
Minimum Humidity 52    
Precipitation  
Precipitation 0.00 in - - ()
Sea Level Pressure  
Sea Level Pressure 30.15 in    
Wind  
Wind Speed 2 mph (NNE)    
Max Wind Speed 7 mph    
Max Gust Speed -    
Visibility 10 miles    
Events      
Averages and records for this station are not official NWS values.
T = Trace of Precipitation, MM = Missing Value Source: NWS Daily Summary

Daily Weather History Graph

Daily Weather History Graph

Search for Another Location

Airport or City:

Trip Planner

Search our weather history database for the weather conditions in past years. The results will help you decide how hot, cold, wet, or windy it might be!

Date:

Astronomy

Nov. 04, 2012 Rise Set
Actual Time 7:02 AM EST 5:23 PM EST
Civil Twilight 6:34 AM EST 5:51 PM EST
Nautical Twilight 6:02 AM EST 6:23 PM EST
Astronomical Twilight 5:30 AM EST 6:55 PM EST
Moon 10:00 PM EST (11/4) 11:45 AM EST (11/4)
Length of Visible Light 11h 17m
Length of Day
10h 20m
Waning Gibbous, 72% of the Moon is Illuminated
Nov 4
Waning Gibbous
Nov 6
Last Quarter
Nov 13
New
Nov 20
First Quarter
Nov 28
Full

Hourly Weather History & Observations

Time (EST) Temp. Windchill Dew Point Humidity Pressure Visibility Wind Dir Wind Speed Gust Speed Precip Events Conditions
1:54 AM 39.9 °F - 30.0 °F 68% 30.13 in 10.0 mi Calm Calm - N/A   Overcast
1:54 AM 37.9 °F - 30.9 °F 76% 30.14 in 10.0 mi Calm Calm - N/A   Overcast
2:54 AM 39.0 °F - 30.0 °F 70% 30.13 in 10.0 mi Calm Calm - N/A   Overcast
3:54 AM 37.0 °F - 30.0 °F 76% 30.12 in 10.0 mi Calm Calm - N/A   Overcast
4:54 AM 34.0 °F - 28.9 °F 82% 30.14 in 10.0 mi Calm Calm - N/A   Scattered Clouds
5:54 AM 30.9 °F - 28.0 °F 89% 30.15 in 10.0 mi Calm Calm - N/A   Scattered Clouds
6:54 AM 28.9 °F - 26.1 °F 89% 30.15 in 10.0 mi Calm Calm - N/A   Clear
7:54 AM 30.9 °F - 28.9 °F 92% 30.17 in 9.0 mi Calm Calm - N/A   Clear
8:54 AM 39.0 °F 35.7 °F 30.9 °F 73% 30.17 in 10.0 mi NNE 4.6 mph - N/A   Clear
9:54 AM 42.1 °F 38.4 °F 32.0 °F 67% 30.17 in 10.0 mi ENE 5.8 mph - N/A   Partly Cloudy
10:37 AM 42.8 °F 41.1 °F 30.2 °F 61% 30.14 in 10.0 mi Variable 3.5 mph - N/A   Mostly Cloudy
10:54 AM 43.0 °F 39.5 °F 30.9 °F 62% 30.16 in 10.0 mi NE 5.8 mph - N/A   Overcast
11:54 AM 44.1 °F 42.5 °F 28.9 °F 55% 30.15 in 10.0 mi Variable 3.5 mph - N/A   Overcast
12:54 PM 44.1 °F 40.8 °F 30.0 °F 58% 30.14 in 10.0 mi NNE 5.8 mph - N/A   Overcast
1:54 PM 45.0 °F 43.5 °F 28.0 °F 52% 30.13 in 10.0 mi Variable 3.5 mph - N/A   Overcast
2:54 PM 45.0 °F 41.2 °F 28.9 °F 53% 30.13 in 10.0 mi NNE 6.9 mph - N/A   Overcast
3:54 PM 44.1 °F 41.5 °F 28.9 °F 55% 30.14 in 10.0 mi North 4.6 mph - N/A   Overcast
4:54 PM 43.0 °F 41.3 °F 28.9 °F 58% 30.13 in 10.0 mi NNE 3.5 mph - N/A   Overcast
5:54 PM 42.1 °F 40.2 °F 28.9 °F 60% 30.14 in 10.0 mi North 3.5 mph - N/A   Overcast
6:54 PM 41.0 °F 39.0 °F 28.9 °F 62% 30.15 in 10.0 mi North 3.5 mph - N/A   Overcast
7:54 PM 39.9 °F 37.8 °F 30.0 °F 68% 30.15 in 10.0 mi North 3.5 mph - N/A   Overcast
8:54 PM 39.0 °F 36.8 °F 28.9 °F 67% 30.16 in 10.0 mi North 3.5 mph - N/A   Scattered Clouds
9:54 PM 34.0 °F - 28.0 °F 79% 30.16 in 10.0 mi Calm Calm - N/A   Mostly Cloudy
10:54 PM 36.0 °F - 30.9 °F 82% 30.15 in 9.0 mi Calm Calm - N/A   Overcast